Time,TemperatureF,DewpointF,PressureIn,WindDirection,WindDirectionDegrees,WindSpeedMPH,WindSpeedGustMPH,Humidity,HourlyPrecipIn,Conditions,Clouds,dailyrainin,SolarRadiationWatts/m^2,SoftwareType,DateUTC
2013-03-27 00:00:00,43.7,-99.9,19.99,North,350,2.0,16.0,255,0.00,,,0.00,0,Wunderground v.1.15,2013-03-27 04:00:00,
2013-03-27 00:10:00,43.3,-99.9,19.99,NNW,331,9.0,16.0,255,0.00,,,0.00,0,Wunderground v.1.15,2013-03-27 04:10:00,
2013-03-27 00:20:00,43.1,-99.9,19.99,North,349,5.0,16.0,255,0.00,,,0.00,0,Wunderground v.1.15,2013-03-27 04:20:00,
2013-03-27 00:30:00,43.2,-99.9,19.99,North,354,5.0,16.0,255,0.00,,,0.00,0,Wunderground v.1.15,2013-03-27 04:30:00,
2013-03-27 00:40:00,42.9,-99.9,19.99,NNW,331,12.0,16.0,255,0.00,,,0.00,0,Wunderground v.1.15,2013-03-27 04:40:00,
2013-03-27 00:50:00,42.6,-99.9,19.99,NNW,337,11.0,16.0,255,0.00,,,0.00,0,Wunderground v.1.15,2013-03-27 04:50:00,
2013-03-27 01:00:00,42.4,-99.9,19.99,NNW,335,5.0,20.0,255,0.00,,,0.00,0,Wunderground v.1.15,2013-03-27 05:00:00,
2013-03-27 01:10:00,42.0,-99.9,19.99,NNW,338,8.0,20.0,255,0.00,,,0.00,0,Wunderground v.1.15,2013-03-27 05:10:00,
2013-03-27 01:20:00,41.6,-99.9,19.99,NNW,339,9.0,20.0,255,0.00,,,0.00,0,Wunderground v.1.15,2013-03-27 05:20:00,
2013-03-27 01:30:00,41.3,-99.9,19.99,NNW,339,8.0,20.0,255,0.00,,,0.00,0,Wunderground v.1.15,2013-03-27 05:30:00,
2013-03-27 01:40:00,41.1,-99.9,19.99,North,349,2.0,19.0,255,0.00,,,0.00,0,Wunderground v.1.15,2013-03-27 05:40:00,
2013-03-27 01:50:00,41.0,-99.9,19.99,NNW,346,7.0,19.0,255,0.00,,,0.00,0,Wunderground v.1.15,2013-03-27 05:50:00,
2013-03-27 02:00:00,40.9,-99.9,19.99,NNW,335,8.0,19.0,255,0.00,,,0.00,0,Wunderground v.1.15,2013-03-27 06:00:00,
2013-03-27 02:10:00,40.5,-99.9,19.99,North,355,6.0,18.0,255,0.00,,,0.00,0,Wunderground v.1.15,2013-03-27 06:10:00,
2013-03-27 02:20:00,40.2,-99.9,19.99,North,349,6.0,18.0,255,0.00,,,0.00,0,Wunderground v.1.15,2013-03-27 06:20:00,
2013-03-27 02:29:00,40.2,-99.9,19.98,North,359,5.0,18.0,255,0.00,,,0.00,0,Wunderground v.1.15,2013-03-27 06:29:00,
2013-03-27 02:50:00,39.7,-99.9,19.99,North,351,3.0,13.0,255,0.00,,,0.00,0,Wunderground v.1.15,2013-03-27 06:50:00,
2013-03-27 03:00:00,39.6,-99.9,19.99,North,356,4.0,11.0,255,0.00,,,0.00,0,Wunderground v.1.15,2013-03-27 07:00:00,
2013-03-27 03:10:00,39.3,-99.9,19.99,NNW,347,4.0,11.0,255,0.00,,,0.00,0,Wunderground v.1.15,2013-03-27 07:10:00,
2013-03-27 03:20:00,39.0,-99.9,19.99,North,0,4.0,11.0,255,0.00,,,0.00,0,Wunderground v.1.15,2013-03-27 07:20:00,
2013-03-27 03:30:00,38.9,-99.9,19.99,North,356,2.0,9.0,255,0.00,,,0.00,0,Wunderground v.1.15,2013-03-27 07:30:00,
2013-03-27 03:40:00,38.7,-99.9,19.99,North,0,4.0,9.0,255,0.00,,,0.00,0,Wunderground v.1.15,2013-03-27 07:40:00,
2013-03-27 03:50:00,38.8,-99.9,19.99,North,355,6.0,9.0,255,0.00,,,0.00,0,Wunderground v.1.15,2013-03-27 07:50:00,
2013-03-27 04:00:00,38.8,-99.9,19.99,North,352,8.0,8.0,255,0.00,,,0.00,0,Wunderground v.1.15,2013-03-27 08:00:00,
2013-03-27 04:10:00,38.7,-99.9,19.99,North,350,4.0,8.0,255,0.00,,,0.00,0,Wunderground v.1.15,2013-03-27 08:10:00,
2013-03-27 04:20:00,38.4,-99.9,19.99,NNW,345,4.0,8.0,255,0.00,,,0.00,0,Wunderground v.1.15,2013-03-27 08:20:00,
2013-03-27 04:30:00,38.2,-99.9,19.98,North,0,5.0,8.0,255,0.00,,,0.00,0,Wunderground v.1.15,2013-03-27 08:30:00,
2013-03-27 04:40:00,38.2,-99.9,19.99,North,0,2.0,8.0,255,0.00,,,0.00,0,Wunderground v.1.15,2013-03-27 08:40:00,
2013-03-27 04:50:00,37.8,-99.9,19.99,North,0,5.0,8.0,255,0.00,,,0.00,0,Wunderground v.1.15,2013-03-27 08:50:00,
2013-03-27 05:00:00,37.7,-99.9,19.99,North,0,3.0,8.0,255,0.00,,,0.00,0,Wunderground v.1.15,2013-03-27 09:00:00,
2013-03-27 05:09:00,37.8,-99.9,19.98,North,0,3.0,8.0,255,0.00,,,0.00,0,Wunderground v.1.15,2013-03-27 09:09:00,
2013-03-27 05:19:00,37.9,-99.9,19.99,North,357,4.0,8.0,255,0.00,,,0.00,0,Wunderground v.1.15,2013-03-27 09:19:00,
2013-03-27 05:29:00,37.8,-99.9,19.99,North,0,1.0,8.0,255,0.00,,,0.00,0,Wunderground v.1.15,2013-03-27 09:29:00,
2013-03-27 05:41:00,37.9,-99.9,19.99,North,349,5.0,8.0,255,0.00,,,0.00,0,Wunderground v.1.15,2013-03-27 09:41:00,
2013-03-27 05:51:00,37.9,-99.9,19.99,North,351,3.0,8.0,255,0.00,,,0.00,0,Wunderground v.1.15,2013-03-27 09:51:00,
2013-03-27 06:01:00,37.7,-99.9,19.99,North,0,4.0,9.0,255,0.00,,,0.00,0,Wunderground v.1.15,2013-03-27 10:01:00,
2013-03-27 06:10:00,37.6,-99.9,19.99,North,0,6.0,9.0,255,0.00,,,0.00,0,Wunderground v.1.15,2013-03-27 10:10:00,
2013-03-27 06:20:00,37.2,-99.9,19.99,NNE,13,4.0,9.0,255,0.00,,,0.00,0,Wunderground v.1.15,2013-03-27 10:20:00,
2013-03-27 06:30:00,37.1,-99.9,19.99,North,0,3.0,8.0,255,0.00,,,0.00,0,Wunderground v.1.15,2013-03-27 10:30:00,
2013-03-27 06:40:00,36.8,-99.9,19.99,North,1,0.0,8.0,255,0.00,,,0.00,0,Wunderground v.1.15,2013-03-27 10:40:00,
2013-03-27 06:50:00,36.4,-99.9,19.99,North,2,2.0,8.0,255,0.00,,,0.00,0,Wunderground v.1.15,2013-03-27 10:50:00,
2013-03-27 07:00:00,36.2,-99.9,19.99,North,2,0.0,8.0,255,0.00,,,0.00,0,Wunderground v.1.15,2013-03-27 11:00:00,
2013-03-27 07:10:00,36.3,-99.9,19.99,North,2,2.0,7.0,255,0.00,,,0.00,0,Wunderground v.1.15,2013-03-27 11:10:00,
2013-03-27 07:20:00,36.4,-99.9,19.98,North,357,2.0,7.0,255,0.00,,,0.00,0,Wunderground v.1.15,2013-03-27 11:20:00,
2013-03-27 07:30:00,36.9,-99.9,19.99,North,0,2.0,7.0,255,0.00,,,0.00,0,Wunderground v.1.15,2013-03-27 11:30:00,
2013-03-27 07:40:00,37.6,-99.9,19.99,North,0,2.0,7.0,255,0.00,,,0.00,0,Wunderground v.1.15,2013-03-27 11:40:00,
2013-03-27 07:50:00,38.3,-99.9,19.99,North,0,0.0,7.0,255,0.00,,,0.00,0,Wunderground v.1.15,2013-03-27 11:50:00,
2013-03-27 07:59:00,39.0,-99.9,19.99,North,0,3.0,7.0,255,0.00,,,0.00,0,Wunderground v.1.15,2013-03-27 11:59:00,
2013-03-27 08:09:00,39.7,-99.9,19.98,North,358,4.0,7.0,255,0.00,,,0.00,0,Wunderground v.1.15,2013-03-27 12:09:00,
2013-03-27 08:19:00,40.6,-99.9,19.99,North,356,2.0,7.0,255,0.00,,,0.00,0,Wunderground v.1.15,2013-03-27 12:19:00,
2013-03-27 08:29:00,41.7,-99.9,19.99,North,0,1.0,7.0,255,0.00,,,0.00,0,Wunderground v.1.15,2013-03-27 12:29:00,
2013-03-27 08:35:00,42.2,-99.9,19.99,North,351,4.0,7.0,255,0.00,,,0.00,0,Wunderground v.1.15,2013-03-27 12:35:00,
2013-03-27 08:44:00,42.6,-99.9,19.99,North,0,4.0,7.0,255,0.00,,,0.00,0,Wunderground v.1.15,2013-03-27 12:44:00,
2013-03-27 08:55:00,43.8,-99.9,19.99,NNE,22,8.0,8.0,255,0.00,,,0.00,0,Wunderground v.1.15,2013-03-27 12:55:00,
2013-03-27 09:04:00,43.8,-99.9,19.99,North,356,6.0,10.0,255,0.00,,,0.00,0,Wunderground v.1.15,2013-03-27 13:04:00,
2013-03-27 09:14:00,45.4,-99.9,19.98,NNE,16,5.0,10.0,255,0.00,,,0.00,0,Wunderground v.1.15,2013-03-27 13:14:00,
2013-03-27 09:25:00,45.1,-99.9,19.99,NNE,15,5.0,10.0,255,0.00,,,0.00,0,Wunderground v.1.15,2013-03-27 13:25:00,
2013-03-27 09:34:00,45.8,-99.9,19.98,NNE,30,5.0,10.0,255,0.00,,,0.00,0,Wunderground v.1.15,2013-03-27 13:34:00,
2013-03-27 09:44:00,46.4,-99.9,19.98,NNE,19,7.0,10.0,255,0.00,,,0.00,0,Wunderground v.1.15,2013-03-27 13:44:00,
2013-03-27 09:54:00,47.8,-99.9,19.99,NNE,31,10.0,10.0,255,0.00,,,0.00,0,Wunderground v.1.15,2013-03-27 13:54:00,
2013-03-27 10:04:00,47.7,-99.9,19.99,NNE,28,4.0,13.0,255,0.00,,,0.00,0,Wunderground v.1.15,2013-03-27 14:04:00,
2013-03-27 10:14:00,48.9,-99.9,19.99,ENE,65,5.0,13.0,255,0.00,,,0.00,0,Wunderground v.1.15,2013-03-27 14:14:00,
2013-03-27 10:24:00,48.3,-99.9,19.98,North,354,11.0,13.0,255,0.00,,,0.00,0,Wunderground v.1.15,2013-03-27 14:24:00,
2013-03-27 10:34:00,48.8,-99.9,19.99,North,6,6.0,11.0,255,0.00,,,0.00,0,Wunderground v.1.15,2013-03-27 14:34:00,
2013-03-27 10:44:00,49.1,-99.9,19.99,East,85,9.0,11.0,255,0.00,,,0.00,0,Wunderground v.1.15,2013-03-27 14:44:00,
2013-03-27 10:54:00,50.4,-99.9,19.99,NNE,18,4.0,11.0,255,0.00,,,0.00,0,Wunderground v.1.15,2013-03-27 14:54:00,
2013-03-27 11:04:00,50.3,-99.9,19.99,North,0,3.0,15.0,255,0.00,,,0.00,0,Wunderground v.1.15,2013-03-27 15:04:00,
2013-03-27 11:14:00,50.4,-99.9,19.99,NNE,30,3.0,15.0,255,0.00,,,0.00,0,Wunderground v.1.15,2013-03-27 15:14:00,
2013-03-27 11:24:00,51.2,-99.9,19.99,NNE,24,4.0,15.0,255,0.00,,,0.00,0,Wunderground v.1.15,2013-03-27 15:24:00,
2013-03-27 11:34:00,51.0,-99.9,19.99,NNW,339,11.0,18.0,255,0.00,,,0.00,0,Wunderground v.1.15,2013-03-27 15:34:00,
2013-03-27 11:44:00,53.3,-99.9,19.98,North,359,11.0,18.0,255,0.00,,,0.00,0,Wunderground v.1.15,2013-03-27 15:44:00,
2013-03-27 11:54:00,52.2,-99.9,19.99,North,356,6.0,18.0,255,0.00,,,0.00,0,Wunderground v.1.15,2013-03-27 15:54:00,
2013-03-27 12:04:00,51.7,-99.9,19.98,NE,49,6.0,15.0,255,0.00,,,0.00,0,Wunderground v.1.15,2013-03-27 16:04:00,
2013-03-27 12:14:00,52.0,-99.9,19.99,North,359,10.0,15.0,255,0.00,,,0.00,0,Wunderground v.1.15,2013-03-27 16:14:00,
2013-03-27 12:24:00,53.9,-99.9,19.98,NNE,13,12.0,15.0,255,0.00,,,0.00,0,Wunderground v.1.15,2013-03-27 16:24:00,
2013-03-27 12:33:00,54.3,-99.9,19.99,North,5,2.0,15.0,255,0.00,,,0.00,0,Wunderground v.1.15,2013-03-27 16:33:00,
2013-03-27 12:43:00,53.6,-99.9,19.99,North,350,10.0,15.0,255,0.00,,,0.00,0,Wunderground v.1.15,2013-03-27 16:43:00,
2013-03-27 12:54:00,52.8,-99.9,19.99,NNW,341,9.0,15.0,255,0.00,,,0.00,0,Wunderground v.1.15,2013-03-27 16:54:00,
2013-03-27 13:03:00,53.8,-99.9,19.99,North,350,5.0,15.0,255,0.00,,,0.00,0,Wunderground v.1.15,2013-03-27 17:03:00,
2013-03-27 13:13:00,54.2,-99.9,19.99,NNE,20,7.0,15.0,255,0.00,,,0.00,0,Wunderground v.1.15,2013-03-27 17:13:00,
2013-03-27 13:23:00,54.3,-99.9,19.99,NW,309,0.0,15.0,255,0.00,,,0.00,0,Wunderground v.1.15,2013-03-27 17:23:00,
2013-03-27 13:33:00,55.5,-99.9,19.99,North,5,9.0,19.0,255,0.00,,,0.00,0,Wunderground v.1.15,2013-03-27 17:33:00,
2013-03-27 13:43:00,56.5,-99.9,19.99,NNW,332,8.0,19.0,255,0.00,,,0.00,0,Wunderground v.1.15,2013-03-27 17:43:00,
2013-03-27 13:53:00,55.5,-99.9,19.98,North,0,2.0,19.0,255,0.00,,,0.00,0,Wunderground v.1.15,2013-03-27 17:53:00,
2013-03-27 14:03:00,56.2,-99.9,19.99,NNW,329,3.0,14.0,255,0.00,,,0.00,0,Wunderground v.1.15,2013-03-27 18:03:00,
2013-03-27 14:13:00,55.9,-99.9,19.99,NW,319,8.0,14.0,255,0.00,,,0.00,0,Wunderground v.1.15,2013-03-27 18:13:00,
2013-03-27 14:23:00,56.5,-99.9,19.99,West,262,6.0,14.0,255,0.00,,,0.00,0,Wunderground v.1.15,2013-03-27 18:23:00,
2013-03-27 14:33:00,57.1,-99.9,19.99,NNW,335,5.0,16.0,255,0.00,,,0.00,0,Wunderground v.1.15,2013-03-27 18:33:00,
2013-03-27 14:43:00,57.5,-99.9,19.99,NNW,332,6.0,16.0,255,0.00,,,0.00,0,Wunderground v.1.15,2013-03-27 18:43:00,
2013-03-27 14:53:00,56.6,-99.9,19.99,NNW,347,9.0,16.0,255,0.00,,,0.00,0,Wunderground v.1.15,2013-03-27 18:53:00,
2013-03-27 15:03:00,56.6,-99.9,19.99,NW,324,8.0,12.0,255,0.00,,,0.00,0,Wunderground v.1.15,2013-03-27 19:03:00,
2013-03-27 15:13:00,58.1,-99.9,19.99,NNE,29,1.0,12.0,255,0.00,,,0.00,0,Wunderground v.1.15,2013-03-27 19:13:00,
2013-03-27 15:23:00,58.8,-99.9,19.99,WSW,249,2.0,12.0,255,0.00,,,0.00,0,Wunderground v.1.15,2013-03-27 19:23:00,
2013-03-27 15:33:00,57.7,-99.9,19.99,SSW,211,4.0,13.0,255,0.00,,,0.00,0,Wunderground v.1.15,2013-03-27 19:33:00,
2013-03-27 15:42:00,57.4,-99.9,19.99,WNW,283,4.0,13.0,255,0.00,,,0.00,0,Wunderground v.1.15,2013-03-27 19:42:00,
2013-03-27 15:53:00,56.3,-99.9,19.98,SW,214,1.0,13.0,255,0.00,,,0.00,0,Wunderground v.1.15,2013-03-27 19:53:00,
2013-03-27 16:02:00,55.0,-99.9,19.99,SSW,197,5.0,15.0,255,0.00,,,0.00,0,Wunderground v.1.15,2013-03-27 20:02:00,
2013-03-27 16:12:00,56.3,-99.9,19.98,SW,218,2.0,15.0,255,0.00,,,0.00,0,Wunderground v.1.15,2013-03-27 20:12:00,
2013-03-27 16:22:00,58.3,-99.9,19.99,North,358,5.0,15.0,255,0.00,,,0.00,0,Wunderground v.1.15,2013-03-27 20:22:00,
2013-03-27 16:33:00,59.0,-99.9,19.99,North,0,2.0,15.0,255,0.00,,,0.00,0,Wunderground v.1.15,2013-03-27 20:33:00,
2013-03-27 16:42:00,59.9,-99.9,19.99,NNW,346,8.0,15.0,255,0.00,,,0.00,0,Wunderground v.1.15,2013-03-27 20:42:00,
2013-03-27 16:52:00,59.1,-99.9,19.99,NNW,341,4.0,15.0,255,0.00,,,0.00,0,Wunderground v.1.15,2013-03-27 20:52:00,
2013-03-27 17:02:00,58.9,-99.9,19.99,North,3,3.0,18.0,255,0.00,,,0.00,0,Wunderground v.1.15,2013-03-27 21:02:00,
2013-03-27 17:12:00,58.9,-99.9,19.99,NE,38,4.0,18.0,255,0.00,,,0.00,0,Wunderground v.1.15,2013-03-27 21:12:00,
2013-03-27 17:22:00,58.5,-99.9,19.99,NNW,348,10.0,18.0,255,0.00,,,0.00,0,Wunderground v.1.15,2013-03-27 21:22:00,
2013-03-27 17:32:00,58.6,-99.9,19.99,NNW,337,11.0,18.0,255,0.00,,,0.00,0,Wunderground v.1.15,2013-03-27 21:32:00,
2013-03-27 17:42:00,59.2,-99.9,19.99,North,0,3.0,18.0,255,0.00,,,0.00,0,Wunderground v.1.15,2013-03-27 21:42:00,
2013-03-27 17:52:00,59.4,-99.9,19.99,NW,314,7.0,18.0,255,0.00,,,0.00,0,Wunderground v.1.15,2013-03-27 21:52:00,
2013-03-27 18:02:00,58.6,-99.9,19.99,NW,311,4.0,14.0,255,0.00,,,0.00,0,Wunderground v.1.15,2013-03-27 22:02:00,
2013-03-27 18:12:00,58.5,-99.9,19.99,North,356,4.0,14.0,255,0.00,,,0.00,0,Wunderground v.1.15,2013-03-27 22:12:00,
2013-03-27 18:22:00,58.4,-99.9,19.99,NNW,341,7.0,14.0,255,0.00,,,0.00,0,Wunderground v.1.15,2013-03-27 22:22:00,
2013-03-27 18:32:00,57.8,-99.9,19.99,North,352,5.0,18.0,255,0.00,,,0.00,0,Wunderground v.1.15,2013-03-27 22:32:00,
2013-03-27 18:42:00,58.2,-99.9,19.99,North,6,5.0,18.0,255,0.00,,,0.00,0,Wunderground v.1.15,2013-03-27 22:42:00,
2013-03-27 18:52:00,57.4,-99.9,19.99,NNE,28,5.0,18.0,255,0.00,,,0.00,0,Wunderground v.1.15,2013-03-27 22:52:00,
2013-03-27 19:02:00,57.3,-99.9,19.99,North,0,0.0,13.0,255,0.00,,,0.00,0,Wunderground v.1.15,2013-03-27 23:02:00,
2013-03-27 19:12:00,56.6,-99.9,19.99,NNW,336,3.0,13.0,255,0.00,,,0.00,0,Wunderground v.1.15,2013-03-27 23:12:00,
2013-03-27 19:21:00,55.9,-99.9,19.98,North,0,6.0,13.0,255,0.00,,,0.00,0,Wunderground v.1.15,2013-03-27 23:21:00,
2013-03-27 19:31:00,55.3,-99.9,19.99,North,357,5.0,11.0,255,0.00,,,0.00,0,Wunderground v.1.15,2013-03-27 23:31:00,
2013-03-27 19:41:00,54.6,-99.9,19.99,North,358,1.0,11.0,255,0.00,,,0.00,0,Wunderground v.1.15,2013-03-27 23:41:00,
2013-03-27 19:52:00,54.1,-99.9,19.99,North,355,0.0,11.0,255,0.00,,,0.00,0,Wunderground v.1.15,2013-03-27 23:52:00,
2013-03-27 20:02:00,53.5,-99.9,19.99,North,0,0.0,12.0,255,0.00,,,0.00,0,Wunderground v.1.15,2013-03-28 00:02:00,
2013-03-27 20:11:00,52.9,-99.9,19.99,North,0,0.0,12.0,255,0.00,,,0.00,0,Wunderground v.1.15,2013-03-28 00:11:00,
2013-03-27 20:21:00,51.6,-99.9,19.99,North,0,0.0,12.0,255,0.00,,,0.00,0,Wunderground v.1.15,2013-03-28 00:21:00,
2013-03-27 20:31:00,49.9,-99.9,19.99,North,0,0.0,4.0,255,0.00,,,0.00,0,Wunderground v.1.15,2013-03-28 00:31:00,
2013-03-27 20:41:00,50.7,-99.9,19.98,North,0,0.0,4.0,255,0.00,,,0.00,0,Wunderground v.1.15,2013-03-28 00:41:00,
2013-03-27 20:51:00,50.6,-99.9,19.99,North,0,0.0,4.0,255,0.00,,,0.00,0,Wunderground v.1.15,2013-03-28 00:51:00,
2013-03-27 21:01:00,49.2,-99.9,19.99,North,0,0.0,3.0,255,0.00,,,0.00,0,Wunderground v.1.15,2013-03-28 01:01:00,
2013-03-27 21:21:00,48.1,-99.9,19.99,North,0,0.0,3.0,255,0.00,,,0.00,0,Wunderground v.1.15,2013-03-28 01:21:00,
2013-03-27 21:51:00,46.7,-99.9,19.98,North,0,0.0,0.0,255,0.00,,,0.00,0,Wunderground v.1.15,2013-03-28 01:51:00,
2013-03-27 22:01:00,46.2,-99.9,19.99,North,0,0.0,0.0,255,0.00,,,0.00,0,Wunderground v.1.15,2013-03-28 02:01:00,
2013-03-27 22:21:00,45.2,-99.9,19.99,North,0,0.0,0.0,255,0.00,,,0.00,0,Wunderground v.1.15,2013-03-28 02:21:00,
2013-03-27 22:31:00,45.0,-99.9,19.99,North,0,0.0,2.0,255,0.00,,,0.00,0,Wunderground v.1.15,2013-03-28 02:31:00,
2013-03-27 22:40:00,45.3,-99.9,19.99,North,0,0.0,2.0,255,0.00,,,0.00,0,Wunderground v.1.15,2013-03-28 02:40:00,
2013-03-27 22:51:00,45.3,-99.9,19.99,North,0,0.0,2.0,255,0.00,,,0.00,0,Wunderground v.1.15,2013-03-28 02:51:00,
2013-03-27 23:01:00,45.0,-99.9,19.99,North,0,0.0,0.0,255,0.00,,,0.00,0,Wunderground v.1.15,2013-03-28 03:01:00,
2013-03-27 23:10:00,44.4,-99.9,19.99,North,0,0.0,0.0,255,0.00,,,0.00,0,Wunderground v.1.15,2013-03-28 03:10:00,
2013-03-27 23:20:00,44.6,-99.9,19.98,North,0,0.0,0.0,255,0.00,,,0.00,0,Wunderground v.1.15,2013-03-28 03:20:00,
2013-03-27 23:30:00,44.3,-99.9,19.99,North,0,0.0,0.0,255,0.00,,,0.00,0,Wunderground v.1.15,2013-03-28 03:30:00,
2013-03-27 23:40:00,44.0,-99.9,19.99,North,0,0.0,0.0,255,0.00,,,0.00,0,Wunderground v.1.15,2013-03-28 03:40:00,
2013-03-27 23:50:00,43.6,-99.9,19.99,North,0,0.0,0.0,255,0.00,,,0.00,0,Wunderground v.1.15,2013-03-28 03:50:00,